NOZ1171 BIKF-ENGM

Flight info

Callsign NOZ1171
Flight time N/A
Altitude 35000
Route LUTER3D LUTER DCT 64N010W DCT ISVIG/N0445F350 DCT BELGU
Aircraft B738/M-SDE2E3FGHIRWXY/LB1

Departure

Time N/A
Airport Keflavik International Airport (BIKF)

Arrival

Time 2026-05-01 13:55
Airport Oslo-Gardermoen International Airport (ENGM)
Time Latitude Longitude Altitude Speed Heading
2026-05-01 12:39 63.59029 -5.38670 34853 ft 504 kts 107°
2026-05-01 12:39 63.58345 -5.30989 34851 ft 501 kts 108°
2026-05-01 12:39 63.56971 -5.15700 34861 ft 503 kts 108°
2026-05-01 12:40 63.55573 -5.00371 34866 ft 502 kts 108°
2026-05-01 12:40 63.54163 -4.85088 34864 ft 503 kts 108°
2026-05-01 12:41 63.52741 -4.69840 34875 ft 501 kts 108°
2026-05-01 12:41 63.51308 -4.54639 34878 ft 500 kts 108°
2026-05-01 12:42 63.49843 -4.39356 34876 ft 500 kts 108°
2026-05-01 12:42 63.48375 -4.24212 34882 ft 499 kts 109°
2026-05-01 12:43 63.46898 -4.09121 34881 ft 501 kts 109°
2026-05-01 12:43 63.45393 -3.93940 34891 ft 500 kts 109°
2026-05-01 12:44 63.43864 -3.78684 34892 ft 501 kts 109°
2026-05-01 12:45 63.40774 -3.48440 34905 ft 501 kts 109°
2026-05-01 12:45 63.39214 -3.33408 34909 ft 499 kts 110°
2026-05-01 12:46 63.37634 -3.18336 34913 ft 499 kts 110°
2026-05-01 12:46 63.36039 -3.03340 34920 ft 501 kts 110°
2026-05-01 12:47 63.34410 -2.88185 34932 ft 501 kts 110°
2026-05-01 12:47 63.33676 -2.81391 34920 ft 499 kts 110°
2026-05-01 12:48 63.32941 -2.74619 34932 ft 501 kts 110°
2026-05-01 12:48 63.32116 -2.67076 34814 ft 502 kts 110°
2026-05-01 12:48 63.31296 -2.59609 34917 ft 499 kts 110°
2026-05-01 12:49 63.29631 -2.44599 34930 ft 501 kts 110°
2026-05-01 12:49 63.27951 -2.29573 34946 ft 501 kts 111°
2026-05-01 12:50 63.26251 -2.14547 34927 ft 500 kts 111°
2026-05-01 12:50 63.24556 -1.99727 34947 ft 501 kts 111°
2026-05-01 12:51 63.22826 -1.84760 34925 ft 502 kts 111°
2026-05-01 12:52 63.20202 -1.62329 34947 ft 502 kts 111°
2026-05-01 12:52 63.17542 -1.39929 34946 ft 501 kts 111°
2026-05-01 12:53 63.14872 -1.17755 34957 ft 499 kts 112°
2026-05-01 12:54 63.13060 -1.02932 34964 ft 503 kts 112°
2026-05-01 12:54 63.10304 -0.80642 34951 ft 502 kts 112°
2026-05-01 12:55 63.07520 -0.58445 34938 ft 503 kts 112°
2026-05-01 12:56 63.05643 -0.43646 34966 ft 502 kts 112°
2026-05-01 12:56 63.03759 -0.28921 34969 ft 501 kts 113°
2026-05-01 12:57 63.01864 -0.14275 34961 ft 502 kts 113°
2026-05-01 12:57 62.98983 0.07872 34971 ft 502 kts 112°
2026-05-01 12:58 62.97141 0.22668 34966 ft 506 kts 112°
2026-05-01 12:59 62.94406 0.44856 34974 ft 504 kts 111°
2026-05-01 12:59 62.91616 0.67032 34972 ft 502 kts 112°
2026-05-01 13:00 62.88776 0.89134 34970 ft 503 kts 112°
2026-05-01 13:01 62.85911 1.11094 34975 ft 502 kts 113°
2026-05-01 13:02 62.82992 1.33140 34979 ft 503 kts 112°
2026-05-01 13:07 62.60737 2.92248 35023 ft 499 kts 114°
2026-05-01 13:08 62.58617 3.06646 35029 ft 498 kts 114°
2026-05-01 13:08 62.56499 3.20899 35044 ft 499 kts 114°
2026-05-01 13:09 62.54371 3.35107 35049 ft 498 kts 114°
2026-05-01 13:09 62.52228 3.49297 35049 ft 497 kts 113°
2026-05-01 13:10 62.50057 3.63562 35049 ft 498 kts 113°
2026-05-01 13:10 62.47887 3.77714 35054 ft 496 kts 114°
2026-05-01 13:11 62.45716 3.91744 35059 ft 497 kts 114°
2026-05-01 13:11 62.43518 4.05834 35065 ft 497 kts 114°
2026-05-01 13:12 62.41302 4.19943 35071 ft 497 kts 114°
2026-05-01 13:12 62.39083 4.33956 35068 ft 496 kts 114°
2026-05-01 13:13 62.36860 4.47867 35069 ft 495 kts 114°
2026-05-01 13:13 62.34618 4.61811 35072 ft 495 kts 114°
2026-05-01 13:14 62.32367 4.75698 35075 ft 493 kts 115°
2026-05-01 13:14 62.30108 4.89532 35075 ft 492 kts 115°
2026-05-01 13:15 62.27829 5.03373 35072 ft 492 kts 115°
2026-05-01 13:15 62.25555 5.17086 35075 ft 491 kts 114°
2026-05-01 13:16 62.23254 5.30840 35070 ft 491 kts 114°
2026-05-01 13:16 62.20940 5.44587 35063 ft 492 kts 114°
2026-05-01 13:17 62.16288 5.71918 35061 ft 490 kts 115°
2026-05-01 13:18 62.12764 5.92362 35070 ft 488 kts 115°
2026-05-01 13:18 62.10398 6.05954 35073 ft 488 kts 115°
2026-05-01 13:19 62.08031 6.19458 35078 ft 487 kts 114°
2026-05-01 13:20 62.04448 6.39719 35072 ft 487 kts 114°
2026-05-01 13:20 62.02055 6.53137 35070 ft 484 kts 114°
2026-05-01 13:21 61.98446 6.73195 35056 ft 484 kts 115°
2026-05-01 13:21 61.96025 6.86538 35048 ft 483 kts 115°
2026-05-01 13:22 61.93600 6.99794 35042 ft 484 kts 115°
2026-05-01 13:22 61.91165 7.13018 35056 ft 483 kts 115°
2026-05-01 13:23 61.88703 7.26307 35058 ft 482 kts 115°
2026-05-01 13:23 61.86209 7.39673 35071 ft 481 kts 115°
2026-05-01 13:24 61.83742 7.52810 34974 ft 482 kts 115°
2026-05-01 13:24 61.82490 7.59439 34688 ft 481 kts 115°
2026-05-01 13:25 61.80034 7.72400 34051 ft 470 kts 116°
2026-05-01 13:25 61.78834 7.78707 33678 ft 466 kts 116°
2026-05-01 13:25 61.77628 7.85021 33312 ft 465 kts 116°
2026-05-01 13:25 61.76415 7.91349 32947 ft 463 kts 116°
2026-05-01 13:26 61.75217 7.97577 32580 ft 459 kts 116°
2026-05-01 13:26 61.74010 8.03836 32202 ft 456 kts 116°
2026-05-01 13:26 61.72822 8.09970 31831 ft 454 kts 117°
2026-05-01 13:26 61.71631 8.16092 31463 ft 452 kts 117°
2026-05-01 13:27 61.70437 8.22214 31088 ft 450 kts 117°
2026-05-01 13:27 61.69266 8.28201 30718 ft 446 kts 117°
2026-05-01 13:27 61.66922 8.40150 29963 ft 441 kts 117°
2026-05-01 13:28 61.64584 8.51979 29213 ft 439 kts 117°
2026-05-01 13:28 61.63412 8.57873 28829 ft 436 kts 117°
2026-05-01 13:29 61.61074 8.69599 28082 ft 432 kts 118°
2026-05-01 13:29 61.58773 8.81076 27337 ft 427 kts 118°
2026-05-01 13:30 61.54172 9.03838 25848 ft 422 kts 118°
2026-05-01 13:31 61.51897 9.15003 25105 ft 417 kts 118°
2026-05-01 13:31 61.48486 9.31613 23975 ft 413 kts 118°
2026-05-01 13:32 61.46225 9.42547 23232 ft 408 kts 118°
2026-05-01 13:33 61.42876 9.58651 22140 ft 402 kts 118°
2026-05-01 13:33 61.40664 9.69221 21407 ft 395 kts 119°
2026-05-01 13:34 61.38468 9.79658 20684 ft 393 kts 119°
2026-05-01 13:34 61.36275 9.90032 20003 ft 387 kts 119°
2026-05-01 13:35 61.34107 10.00233 19338 ft 385 kts 119°
2026-05-01 13:35 61.33036 10.05244 19005 ft 383 kts 118°
2026-05-01 13:35 61.30885 10.15296 18336 ft 379 kts 118°
2026-05-01 13:36 61.29819 10.20264 18004 ft 376 kts 119°
2026-05-01 13:36 61.28754 10.25209 17672 ft 374 kts 118°
2026-05-01 13:36 61.26642 10.34973 17034 ft 367 kts 118°
2026-05-01 13:37 61.25619 10.39696 16717 ft 361 kts 118°
2026-05-01 13:37 61.24589 10.44442 16395 ft 355 kts 118°
2026-05-01 13:37 61.23585 10.49060 16078 ft 351 kts 119°
2026-05-01 13:37 61.22583 10.53624 15751 ft 348 kts 120°
2026-05-01 13:38 61.19728 10.61220 15140 ft 326 kts 156°
2026-05-01 13:38 61.17728 10.63213 14872 ft 316 kts 166°
2026-05-01 13:38 61.15670 10.64815 14590 ft 314 kts 167°
2026-05-01 13:39 61.13629 10.66368 14306 ft 311 kts 168°
2026-05-01 13:39 61.11612 10.67957 14024 ft 310 kts 167°
2026-05-01 13:39 61.09623 10.69575 13747 ft 311 kts 166°
2026-05-01 13:39 61.07620 10.71245 13462 ft 308 kts 166°
2026-05-01 13:40 61.05653 10.72903 13183 ft 308 kts 166°
2026-05-01 13:40 61.03693 10.74554 12904 ft 306 kts 166°
2026-05-01 13:40 61.01730 10.76207 12626 ft 305 kts 166°
2026-05-01 13:40 60.99761 10.77859 12345 ft 304 kts 166°
2026-05-01 13:41 60.97804 10.79496 12069 ft 302 kts 166°
2026-05-01 13:41 60.95863 10.81120 11799 ft 303 kts 166°
2026-05-01 13:41 60.93937 10.82728 11526 ft 301 kts 166°
2026-05-01 13:41 60.92011 10.84346 11253 ft 299 kts 166°
2026-05-01 13:42 60.90088 10.85977 10999 ft 299 kts 166°
2026-05-01 13:42 60.88163 10.87611 10750 ft 300 kts 166°
2026-05-01 13:42 60.86243 10.89241 10496 ft 298 kts 165°
2026-05-01 13:42 60.84341 10.90855 10243 ft 296 kts 166°
2026-05-01 13:43 60.82430 10.92469 9991 ft 296 kts 166°
2026-05-01 13:43 60.80542 10.94060 9737 ft 295 kts 166°
2026-05-01 13:43 60.78660 10.95648 9484 ft 292 kts 166°
2026-05-01 13:43 60.76803 10.97196 9235 ft 290 kts 167°
2026-05-01 13:44 60.74892 10.98357 8972 ft 279 kts 175°
2026-05-01 13:44 60.73028 10.99085 8732 ft 272 kts 178°
2026-05-01 13:44 60.71173 10.99686 8488 ft 267 kts 178°
2026-05-01 13:44 60.69368 11.00273 8251 ft 265 kts 178°
2026-05-01 13:45 60.67531 11.00901 8009 ft 266 kts 177°
2026-05-01 13:45 60.65728 11.01545 7768 ft 264 kts 177°
2026-05-01 13:45 60.63934 11.02198 7530 ft 264 kts 176°
2026-05-01 13:45 60.62122 11.02856 7287 ft 263 kts 176°
2026-05-01 13:46 60.60337 11.03504 7047 ft 263 kts 176°
2026-05-01 13:46 60.58569 11.04145 6806 ft 259 kts 176°
2026-05-01 13:46 60.56801 11.04786 6560 ft 254 kts 176°
2026-05-01 13:46 60.55094 11.05400 6320 ft 250 kts 175°
2026-05-01 13:47 60.53398 11.06009 6076 ft 247 kts 175°
2026-05-01 13:47 60.51720 11.06613 5834 ft 243 kts 175°
2026-05-01 13:47 60.50073 11.07207 5592 ft 240 kts 175°
2026-05-01 13:47 60.48443 11.07793 5347 ft 237 kts 175°
2026-05-01 13:48 60.46851 11.08616 5105 ft 237 kts 163°
2026-05-01 13:48 60.45499 11.10534 4861 ft 246 kts 138°
2026-05-01 13:48 60.44414 11.13231 4618 ft 246 kts 132°
2026-05-01 13:48 60.43384 11.15957 4375 ft 245 kts 133°
2026-05-01 13:49 60.42323 11.18613 4127 ft 240 kts 134°
2026-05-01 13:49 60.41239 11.21088 3933 ft 232 kts 141°
2026-05-01 13:49 60.39950 11.22824 3923 ft 217 kts 167°
2026-05-01 13:49 60.38504 11.23058 3924 ft 203 kts 194°
2026-05-01 13:50 60.37218 11.22293 3926 ft 183 kts 204°
2026-05-01 13:50 60.36044 11.21494 3885 ft 177 kts 201°
2026-05-01 13:50 60.34884 11.20812 3684 ft 172 kts 200°
2026-05-01 13:50 60.33738 11.20154 3449 ft 169 kts 200°
2026-05-01 13:51 60.32621 11.19503 3219 ft 165 kts 201°
2026-05-01 13:51 60.31533 11.18865 2997 ft 159 kts 201°
2026-05-01 13:51 60.30506 11.18269 2788 ft 151 kts 200°
2026-05-01 13:51 60.29543 11.17714 2619 ft 137 kts 200°
2026-05-01 13:52 60.28631 11.17180 2419 ft 138 kts 200°
2026-05-01 13:52 60.27714 11.16645 2231 ft 137 kts 199°
2026-05-01 13:52 60.26803 11.16117 2055 ft 137 kts 199°
2026-05-01 13:52 60.25876 11.15578 1873 ft 138 kts 199°
2026-05-01 13:53 60.24960 11.15100 1750 ft 134 kts 199°
2026-05-01 13:53 60.23165 11.14002 1385 ft 138 kts 198°
2026-05-01 13:53 60.22238 11.13501 1201 ft 138 kts 198°
2026-05-01 13:54 60.21316 11.12955 983 ft 139 kts 198°
2026-05-01 13:54 60.20403 11.12424 788 ft 137 kts 198°
2026-05-01 13:54 60.19507 11.11890 688 ft 122 kts 196°
2026-05-01 13:54 60.18901 11.11544 688 ft 68 kts 196°
2026-05-01 13:55 60.18557 11.11323 688 ft 38 kts 206°
2026-05-01 13:55 60.18438 11.11072 688 ft 19 kts 269°
2026-05-01 13:55 60.18514 11.10923 688 ft 17 kts 14°
2026-05-01 13:55 60.18629 11.10993 688 ft 17 kts 15°
2026-05-01 13:56 60.18742 11.11057 688 ft 16 kts 16°
2026-05-01 13:56 60.18853 11.11121 688 ft 16 kts 16°
2026-05-01 13:56 60.18962 11.11186 688 ft 16 kts 16°
2026-05-01 13:56 60.19068 11.11247 688 ft 15 kts 15°
2026-05-01 13:57 60.19181 11.11310 688 ft 17 kts 15°
2026-05-01 13:57 60.19262 11.11358 688 ft 19 kts 16°
2026-05-01 13:57 60.19439 11.11452 688 ft 18 kts 351°
2026-05-01 13:57 60.19495 11.11231 688 ft 19 kts 285°
2026-05-01 13:58 60.19535 11.10949 688 ft 22 kts 286°
2026-05-01 13:58 60.19578 11.10642 688 ft 21 kts 287°
2026-05-01 13:58 60.19698 11.10617 688 ft 20 kts 16°
2026-05-01 13:58 60.19840 11.10695 688 ft 18 kts
2026-05-01 13:59 60.19902 11.10494 688 ft 19 kts 286°
2026-05-01 13:59 60.19943 11.10212 688 ft 22 kts 286°
2026-05-01 13:59 60.19971 11.09948 688 ft 15 kts 236°
2026-05-01 13:59 60.19867 11.09858 688 ft 17 kts 195°
2026-05-01 14:00 60.19741 11.09785 688 ft 19 kts 195°
2026-05-01 14:00 60.19620 11.09730 688 ft 15 kts 159°
2026-05-01 14:00 60.19559 11.09866 688 ft 7 kts 107°
2026-05-01 14:00 60.19554 11.09903 688 ft 0 kts 105°